RYR9GA EGSS-EPKK

Flight info

Callsign RYR9GA
Flight time 1h 52m
Altitude 39000
Route CLN P44 RATLO M197 REDFA DCT TACHA DCT OTMEC DCT ZUCKA DCT DESAR DCT LASIS T714 MOFKE
Aircraft B38M/M-SADE3FGILRWY/SB1

Departure

Time 2026-05-05 17:42
Airport London Stansted Airport (EGSS)

Arrival

Time 2026-05-05 19:35
Airport Kraków John Paul II International Airport (EPKK)
Time Latitude Longitude Altitude Speed Heading
2026-05-05 17:08 51.89109 0.25575 355 ft 0 kts 42°
2026-05-05 17:09 51.89109 0.25574 355 ft 0 kts 42°
2026-05-05 17:31 51.89093 0.25551 364 ft 4 kts 42°
2026-05-05 17:31 51.89077 0.25529 360 ft 4 kts 19°
2026-05-05 17:31 51.89058 0.25536 357 ft 4 kts 315°
2026-05-05 17:31 51.89041 0.25565 359 ft 3 kts 313°
2026-05-05 17:32 51.89039 0.25569 359 ft 0 kts 313°
2026-05-05 17:35 51.89039 0.25568 359 ft 0 kts 313°
2026-05-05 17:35 51.89047 0.25555 357 ft 3 kts 314°
2026-05-05 17:36 51.89067 0.25520 359 ft 5 kts 313°
2026-05-05 17:36 51.89100 0.25462 359 ft 9 kts 312°
2026-05-05 17:36 51.89162 0.25356 359 ft 17 kts 312°
2026-05-05 17:36 51.89128 0.25206 355 ft 17 kts 223°
2026-05-05 17:37 51.89036 0.25069 361 ft 19 kts 222°
2026-05-05 17:37 51.88935 0.24917 355 ft 21 kts 223°
2026-05-05 17:37 51.88827 0.24754 355 ft 22 kts 223°
2026-05-05 17:37 51.88705 0.24572 356 ft 26 kts 223°
2026-05-05 17:38 51.88569 0.24367 348 ft 28 kts 223°
2026-05-05 17:38 51.88441 0.24175 350 ft 23 kts 223°
2026-05-05 17:38 51.88321 0.23994 352 ft 24 kts 224°
2026-05-05 17:38 51.88193 0.23802 345 ft 27 kts 223°
2026-05-05 17:39 51.88057 0.23600 346 ft 23 kts 223°
2026-05-05 17:39 51.87943 0.23428 347 ft 23 kts 223°
2026-05-05 17:39 51.87826 0.23254 346 ft 22 kts 223°
2026-05-05 17:39 51.87727 0.23087 346 ft 14 kts 253°
2026-05-05 17:40 51.87777 0.22954 342 ft 15 kts 313°
2026-05-05 17:40 51.87859 0.22810 338 ft 20 kts 314°
2026-05-05 17:40 51.87938 0.22674 334 ft 11 kts 319°
2026-05-05 17:40 51.87965 0.22669 334 ft 1 kts 39°
2026-05-05 17:41 51.87982 0.22704 336 ft 10 kts 47°
2026-05-05 17:41 51.88003 0.22734 331 ft 4 kts 42°
2026-05-05 17:41 51.88041 0.22791 333 ft 13 kts 42°
2026-05-05 17:41 51.88239 0.23088 335 ft 75 kts 43°
2026-05-05 17:42 51.88795 0.23922 347 ft 140 kts 43°
2026-05-05 17:42 51.89601 0.25133 678 ft 165 kts 44°
2026-05-05 17:42 51.90465 0.26444 1428 ft 171 kts 43°
2026-05-05 17:42 51.91279 0.27807 2269 ft 173 kts 54°
2026-05-05 17:43 51.91701 0.29766 2659 ft 200 kts 84°
2026-05-05 17:43 51.91429 0.32109 3068 ft 227 kts 110°
2026-05-05 17:43 51.90733 0.34578 3577 ft 246 kts 112°
2026-05-05 17:43 51.90004 0.37118 4454 ft 256 kts 113°
2026-05-05 17:44 51.89226 0.39813 5098 ft 271 kts 113°
2026-05-05 17:44 51.88422 0.42568 6063 ft 273 kts 113°
2026-05-05 17:44 51.87612 0.45339 6881 ft 279 kts 114°
2026-05-05 17:44 51.86776 0.48197 7748 ft 283 kts 114°
2026-05-05 17:45 51.85927 0.51093 8611 ft 287 kts 114°
2026-05-05 17:45 51.85061 0.54043 9476 ft 292 kts 114°
2026-05-05 17:45 51.84192 0.56997 10279 ft 297 kts 114°
2026-05-05 17:45 51.83330 0.60074 10736 ft 313 kts 107°
2026-05-05 17:46 51.83029 0.63544 11296 ft 322 kts 88°
2026-05-05 17:46 51.83128 0.67198 11877 ft 331 kts 86°
2026-05-05 17:46 51.83248 0.70935 12637 ft 335 kts 86°
2026-05-05 17:46 51.83379 0.74739 13421 ft 340 kts 85°
2026-05-05 17:47 51.83519 0.78569 14181 ft 343 kts 85°
2026-05-05 17:47 51.83664 0.82445 14882 ft 347 kts 86°
2026-05-05 17:47 51.83808 0.86286 15590 ft 350 kts 86°
2026-05-05 17:47 51.83953 0.90153 16320 ft 352 kts 86°
2026-05-05 17:48 51.84101 0.94120 17001 ft 356 kts 86°
2026-05-05 17:48 51.84249 0.98132 17693 ft 359 kts 86°
2026-05-05 17:48 51.84396 1.02176 18375 ft 361 kts 86°
2026-05-05 17:48 51.84544 1.06250 18950 ft 364 kts 86°
2026-05-05 17:49 51.84691 1.10350 19507 ft 367 kts 86°
2026-05-05 17:49 51.84962 1.14462 20032 ft 370 kts 75°
2026-05-05 17:49 51.85882 1.18334 20591 ft 371 kts 67°
2026-05-05 17:49 51.86898 1.22221 21069 ft 376 kts 67°
2026-05-05 17:50 51.87925 1.26109 21613 ft 379 kts 67°
2026-05-05 17:50 51.88973 1.30038 22128 ft 382 kts 66°
2026-05-05 17:50 51.90037 1.34010 22654 ft 385 kts 67°
2026-05-05 17:50 51.91109 1.38013 23170 ft 389 kts 67°
2026-05-05 17:51 51.92176 1.41998 23652 ft 392 kts 67°
2026-05-05 17:51 51.93265 1.46078 24071 ft 396 kts 68°
2026-05-05 17:51 51.94361 1.50185 24453 ft 400 kts 68°
2026-05-05 17:51 51.95475 1.54368 24784 ft 406 kts 68°
2026-05-05 17:52 51.96595 1.58582 25254 ft 407 kts 68°
2026-05-05 17:52 51.97716 1.62808 25682 ft 411 kts 68°
2026-05-05 17:52 51.98848 1.67094 26104 ft 413 kts 69°
2026-05-05 17:52 51.99676 1.71546 26545 ft 413 kts 78°
2026-05-05 17:53 52.00376 1.76098 26897 ft 417 kts 77°
2026-05-05 17:53 52.01089 1.80668 27350 ft 419 kts 78°
2026-05-05 17:53 52.01805 1.85278 27727 ft 422 kts 78°
2026-05-05 17:53 52.02521 1.89900 28144 ft 424 kts 78°
2026-05-05 17:54 52.03242 1.94567 28521 ft 427 kts 78°
2026-05-05 17:54 52.03964 1.99258 28855 ft 430 kts 78°
2026-05-05 17:54 52.04682 2.03934 29174 ft 434 kts 78°
2026-05-05 17:54 52.05412 2.08704 29555 ft 436 kts 78°
2026-05-05 17:55 52.06146 2.13513 29904 ft 439 kts 78°
2026-05-05 17:55 52.06880 2.18332 30217 ft 441 kts 78°
2026-05-05 17:55 52.07615 2.23183 30534 ft 443 kts 78°
2026-05-05 17:55 52.08353 2.28059 30850 ft 445 kts 78°
2026-05-05 17:56 52.09093 2.32964 31157 ft 446 kts 78°
2026-05-05 17:56 52.09830 2.37866 31511 ft 447 kts 79°
2026-05-05 17:56 52.10570 2.42800 31753 ft 450 kts 79°
2026-05-05 17:56 52.11309 2.47688 32041 ft 452 kts 77°
2026-05-05 17:57 52.12267 2.52655 32312 ft 455 kts 75°
2026-05-05 17:57 52.13224 2.57576 32604 ft 457 kts 76°
2026-05-05 17:57 52.14156 2.62463 32890 ft 459 kts 76°
2026-05-05 17:57 52.15096 2.67435 33162 ft 460 kts 76°
2026-05-05 17:58 52.16033 2.72422 33464 ft 461 kts 76°
2026-05-05 17:58 52.16970 2.77416 33829 ft 461 kts 76°
2026-05-05 17:58 52.17904 2.82408 34184 ft 460 kts 76°
2026-05-05 17:58 52.18832 2.87385 34476 ft 459 kts 76°
2026-05-05 17:59 52.19760 2.92374 34759 ft 460 kts 76°
2026-05-05 17:59 52.20685 2.97361 35029 ft 460 kts 76°
2026-05-05 17:59 52.21608 3.02353 35294 ft 460 kts 76°
2026-05-05 17:59 52.22530 3.07349 35569 ft 460 kts 76°
2026-05-05 18:00 52.23448 3.12340 35832 ft 460 kts 76°
2026-05-05 18:00 52.24371 3.17363 36090 ft 461 kts 76°
2026-05-05 18:00 52.25186 3.22423 36231 ft 460 kts 85°
2026-05-05 18:00 52.25242 3.27563 36520 ft 452 kts 98°
2026-05-05 18:01 52.24991 3.32697 36664 ft 454 kts 97°
2026-05-05 18:01 52.24719 3.37826 36891 ft 454 kts 98°
2026-05-05 18:01 52.24420 3.42978 37107 ft 455 kts 98°
2026-05-05 18:01 52.24108 3.48045 37317 ft 455 kts 98°
2026-05-05 18:02 52.23783 3.53174 37544 ft 455 kts 99°
2026-05-05 18:02 52.23452 3.58318 37753 ft 455 kts 99°
2026-05-05 18:02 52.23119 3.63466 37956 ft 456 kts 98°
2026-05-05 18:02 52.22783 3.68608 38161 ft 456 kts 98°
2026-05-05 18:03 52.22445 3.73748 38327 ft 456 kts 98°
2026-05-05 18:03 52.22107 3.78868 38512 ft 456 kts 98°
2026-05-05 18:03 52.21770 3.83936 38654 ft 457 kts 99°
2026-05-05 18:03 52.21423 3.89095 38764 ft 458 kts 99°
2026-05-05 18:04 52.21075 3.94255 38896 ft 457 kts 98°
2026-05-05 18:04 52.20371 4.04586 38905 ft 457 kts 98°
2026-05-05 18:05 52.19664 4.14819 38906 ft 457 kts 98°
2026-05-05 18:05 52.18949 4.25047 38903 ft 457 kts 99°
2026-05-05 18:06 52.18220 4.35336 38901 ft 457 kts 99°
2026-05-05 18:06 52.17482 4.45626 38901 ft 457 kts 99°
2026-05-05 18:07 52.16735 4.55913 38892 ft 457 kts 99°
2026-05-05 18:07 52.15979 4.66200 38892 ft 457 kts 99°
2026-05-05 18:08 52.15214 4.76484 38907 ft 457 kts 99°
2026-05-05 18:08 52.14439 4.86765 38904 ft 457 kts 99°
2026-05-05 18:09 52.13663 4.96960 38893 ft 458 kts 99°
2026-05-05 18:09 52.12866 5.07297 38897 ft 460 kts 99°
2026-05-05 18:10 52.12061 5.17608 38887 ft 459 kts 99°
2026-05-05 18:10 52.11249 5.27914 38886 ft 459 kts 99°
2026-05-05 18:11 52.10424 5.38248 38883 ft 459 kts 99°
2026-05-05 18:11 52.09734 5.46806 38881 ft 459 kts 100°
2026-05-05 18:12 52.08895 5.57111 38881 ft 460 kts 100°
2026-05-05 18:12 52.08054 5.67361 38884 ft 460 kts 100°
2026-05-05 18:13 52.07200 5.77671 38883 ft 460 kts 100°
2026-05-05 18:13 52.06539 5.87942 38890 ft 461 kts 97°
2026-05-05 18:14 52.05962 5.98318 38883 ft 461 kts 98°
2026-05-05 18:14 52.05365 6.08692 38882 ft 461 kts 98°
2026-05-05 18:15 52.04759 6.19045 38879 ft 461 kts 98°
2026-05-05 18:15 52.04142 6.29432 38876 ft 461 kts 98°
2026-05-05 18:16 52.03516 6.39807 38860 ft 461 kts 98°
2026-05-05 18:16 52.02880 6.50196 38868 ft 462 kts 98°
2026-05-05 18:17 52.02240 6.60497 38865 ft 461 kts 98°
2026-05-05 18:17 52.01590 6.70823 38865 ft 461 kts 98°
2026-05-05 18:18 52.00931 6.81130 38864 ft 461 kts 99°
2026-05-05 18:18 52.00260 6.91501 38861 ft 462 kts 99°
2026-05-05 18:19 51.99577 7.01898 38863 ft 462 kts 99°
2026-05-05 18:19 51.98890 7.12218 38853 ft 462 kts 99°
2026-05-05 18:20 51.98191 7.22579 38857 ft 462 kts 99°
2026-05-05 18:20 51.97481 7.32953 38859 ft 462 kts 99°
2026-05-05 18:21 51.96766 7.43287 38851 ft 462 kts 99°
2026-05-05 18:21 51.96052 7.53461 38842 ft 462 kts 99°
2026-05-05 18:22 51.95317 7.63808 38839 ft 462 kts 99°
2026-05-05 18:22 51.94588 7.73935 38840 ft 462 kts 99°
2026-05-05 18:23 51.93839 7.84217 38823 ft 462 kts 100°
2026-05-05 18:23 51.93083 7.94471 38841 ft 464 kts 100°
2026-05-05 18:24 51.92310 8.04839 38839 ft 463 kts 100°
2026-05-05 18:24 51.91527 8.15205 38837 ft 463 kts 100°
2026-05-05 18:25 51.90735 8.25560 38834 ft 463 kts 100°
2026-05-05 18:25 51.89935 8.35903 38833 ft 463 kts 100°
2026-05-05 18:26 51.89127 8.46238 38836 ft 462 kts 100°
2026-05-05 18:26 51.88310 8.56557 38832 ft 462 kts 100°
2026-05-05 18:27 51.87484 8.66873 38832 ft 462 kts 101°
2026-05-05 18:27 51.86655 8.77121 38835 ft 462 kts 101°
2026-05-05 18:28 51.85386 8.92577 38830 ft 462 kts 101°
2026-05-05 18:28 51.84530 9.02865 38826 ft 462 kts 101°
2026-05-05 18:29 51.83664 9.13165 38827 ft 462 kts 101°
2026-05-05 18:29 51.82790 9.23447 38817 ft 462 kts 101°
2026-05-05 18:30 51.81906 9.33728 38818 ft 462 kts 101°
2026-05-05 18:30 51.81013 9.44019 38823 ft 462 kts 101°
2026-05-05 18:31 51.80112 9.54289 38819 ft 462 kts 101°
2026-05-05 18:31 51.79201 9.64570 38814 ft 462 kts 101°
2026-05-05 18:32 51.78287 9.74767 38809 ft 462 kts 102°
2026-05-05 18:32 51.77357 9.85057 38823 ft 464 kts 102°
2026-05-05 18:33 51.76415 9.95364 38814 ft 464 kts 102°
2026-05-05 18:33 51.75465 10.05660 38814 ft 464 kts 102°
2026-05-05 18:34 51.74504 10.15965 38821 ft 464 kts 102°
2026-05-05 18:34 51.73542 10.26193 38813 ft 464 kts 102°
2026-05-05 18:35 51.72563 10.36499 38819 ft 465 kts 102°
2026-05-05 18:35 51.71577 10.46800 38813 ft 464 kts 102°
2026-05-05 18:36 51.70583 10.57097 38826 ft 464 kts 102°
2026-05-05 18:36 51.69582 10.67386 38823 ft 464 kts 102°
2026-05-05 18:37 51.68572 10.77671 38827 ft 464 kts 103°
2026-05-05 18:37 51.67555 10.87961 38823 ft 464 kts 101°
2026-05-05 18:38 51.67157 10.98319 38841 ft 468 kts 96°
2026-05-05 18:38 51.66879 11.08792 38828 ft 467 kts 96°
2026-05-05 18:39 51.66601 11.19246 38819 ft 468 kts 96°
2026-05-05 18:39 51.66314 11.29723 38837 ft 468 kts 96°
2026-05-05 18:40 51.66018 11.40189 38830 ft 468 kts 96°
2026-05-05 18:40 51.65712 11.50660 38824 ft 468 kts 96°
2026-05-05 18:41 51.65400 11.61052 38820 ft 468 kts 96°
2026-05-05 18:41 51.65077 11.71463 38817 ft 468 kts 96°
2026-05-05 18:42 51.64743 11.81938 38826 ft 469 kts 96°
2026-05-05 18:42 51.64405 11.92280 38812 ft 469 kts 96°
2026-05-05 18:43 51.64050 12.02766 38810 ft 468 kts 98°
2026-05-05 18:43 51.63326 12.13049 38811 ft 468 kts 100°
2026-05-05 18:44 51.62619 12.23311 38802 ft 468 kts 99°
2026-05-05 18:44 51.61900 12.33740 38800 ft 468 kts 99°
2026-05-05 18:45 51.61176 12.44111 38799 ft 468 kts 99°
2026-05-05 18:45 51.60441 12.54522 38804 ft 468 kts 100°
2026-05-05 18:46 51.59698 12.64908 38783 ft 468 kts 100°
2026-05-05 18:46 51.58948 12.75253 38808 ft 468 kts 100°
2026-05-05 18:47 51.58184 12.85667 38801 ft 470 kts 100°
2026-05-05 18:47 51.57410 12.96076 38797 ft 470 kts 100°
2026-05-05 18:48 51.56626 13.06506 38799 ft 470 kts 100°
2026-05-05 18:48 51.55837 13.16874 38794 ft 470 kts 100°
2026-05-05 18:49 51.55034 13.27304 38799 ft 470 kts 100°
2026-05-05 18:49 51.54224 13.37690 38799 ft 470 kts 100°
2026-05-05 18:50 51.53402 13.48118 38802 ft 470 kts 100°
2026-05-05 18:50 51.52577 13.58460 38803 ft 470 kts 100°
2026-05-05 18:51 51.51741 13.68832 38803 ft 470 kts 100°
2026-05-05 18:51 51.50890 13.79254 38805 ft 470 kts 100°
2026-05-05 18:52 51.50031 13.89669 38804 ft 470 kts 100°
2026-05-05 18:52 51.49164 14.00072 38805 ft 470 kts 101°
2026-05-05 18:53 51.48287 14.10469 38805 ft 470 kts 101°
2026-05-05 18:53 51.47404 14.20822 38808 ft 470 kts 101°
2026-05-05 18:54 51.46516 14.31134 38808 ft 470 kts 101°
2026-05-05 18:54 51.45613 14.41506 38808 ft 470 kts 101°
2026-05-05 18:55 51.44700 14.51883 38810 ft 470 kts 101°
2026-05-05 18:55 51.43778 14.62256 38809 ft 470 kts 101°
2026-05-05 18:56 51.42847 14.72638 38815 ft 471 kts 101°
2026-05-05 18:56 51.42068 14.81267 38815 ft 471 kts 101°
2026-05-05 18:57 51.40965 14.93333 38813 ft 470 kts 102°
2026-05-05 18:57 51.40120 14.98348 38796 ft 462 kts 117°
2026-05-05 18:57 51.38872 15.03077 38808 ft 464 kts 115°
2026-05-05 18:58 51.36857 15.11039 38819 ft 465 kts 116°
2026-05-05 18:58 51.34385 15.20606 38813 ft 465 kts 116°
2026-05-05 18:59 51.31902 15.30152 38813 ft 465 kts 116°
2026-05-05 18:59 51.29407 15.39706 38816 ft 465 kts 116°
2026-05-05 19:00 51.26909 15.49230 38814 ft 464 kts 116°
2026-05-05 19:00 51.24422 15.58669 38818 ft 464 kts 116°
2026-05-05 19:01 51.21909 15.68172 38813 ft 464 kts 116°
2026-05-05 19:01 51.19390 15.77655 38816 ft 464 kts 116°
2026-05-05 19:02 51.16882 15.87126 38803 ft 464 kts 115°
2026-05-05 19:02 51.14437 15.96649 38810 ft 464 kts 115°
2026-05-05 19:03 51.11995 16.06087 38809 ft 464 kts 115°
2026-05-05 19:03 51.09518 16.15621 38639 ft 466 kts 115°
2026-05-05 19:04 51.08286 16.20347 38389 ft 463 kts 115°
2026-05-05 19:04 51.07056 16.25058 38081 ft 460 kts 115°
2026-05-05 19:04 51.05829 16.29745 37756 ft 458 kts 115°
2026-05-05 19:04 51.04607 16.34405 37470 ft 454 kts 115°
2026-05-05 19:05 51.03394 16.39020 37180 ft 451 kts 115°
2026-05-05 19:05 51.02187 16.43603 36896 ft 449 kts 115°
2026-05-05 19:05 51.00984 16.48166 36610 ft 446 kts 115°
2026-05-05 19:05 50.99790 16.52688 36341 ft 443 kts 116°
2026-05-05 19:06 50.98325 16.56926 36034 ft 434 kts 131°
2026-05-05 19:06 50.96212 16.60230 35744 ft 422 kts 149°
2026-05-05 19:06 50.93734 16.62575 35504 ft 418 kts 155°
2026-05-05 19:06 50.91206 16.64705 35267 ft 417 kts 155°
2026-05-05 19:07 50.88641 16.66845 35014 ft 416 kts 155°
2026-05-05 19:07 50.86129 16.68940 34765 ft 414 kts 155°
2026-05-05 19:07 50.83601 16.71048 34512 ft 413 kts 155°
2026-05-05 19:07 50.81065 16.73145 34261 ft 410 kts 155°
2026-05-05 19:08 50.78551 16.75217 34024 ft 407 kts 155°
2026-05-05 19:08 50.76042 16.77310 33778 ft 406 kts 152°
2026-05-05 19:08 50.73871 16.80098 33462 ft 408 kts 131°
2026-05-05 19:08 50.72453 16.83905 33177 ft 412 kts 114°
2026-05-05 19:09 50.71634 16.88234 32901 ft 415 kts 102°
2026-05-05 19:09 50.71063 16.92684 32652 ft 414 kts 104°
2026-05-05 19:09 50.70430 16.97106 32380 ft 412 kts 105°
2026-05-05 19:09 50.69788 17.01518 32100 ft 411 kts 105°
2026-05-05 19:10 50.69146 17.05893 31821 ft 409 kts 105°
2026-05-05 19:10 50.68510 17.10219 31570 ft 406 kts 105°
2026-05-05 19:10 50.67871 17.14547 31293 ft 404 kts 105°
2026-05-05 19:10 50.67218 17.18914 31033 ft 416 kts 105°
2026-05-05 19:11 50.66537 17.23425 30769 ft 430 kts 105°
2026-05-05 19:11 50.65842 17.28000 30510 ft 445 kts 105°
2026-05-05 19:11 50.65116 17.32764 30237 ft 458 kts 105°
2026-05-05 19:11 50.64371 17.37670 29969 ft 463 kts 105°
2026-05-05 19:12 50.63628 17.42566 29678 ft 467 kts 105°
2026-05-05 19:12 50.62874 17.47548 29397 ft 469 kts 105°
2026-05-05 19:12 50.62121 17.52522 29104 ft 470 kts 105°
2026-05-05 19:12 50.61359 17.57528 28817 ft 471 kts 105°
2026-05-05 19:13 50.60595 17.62543 28539 ft 471 kts 105°
2026-05-05 19:13 50.59826 17.67572 28263 ft 472 kts 105°
2026-05-05 19:13 50.59082 17.72471 27987 ft 459 kts 105°
2026-05-05 19:13 50.58353 17.77291 27718 ft 449 kts 105°
2026-05-05 19:14 50.57625 17.82041 27448 ft 446 kts 105°
2026-05-05 19:14 50.56896 17.86777 27179 ft 444 kts 105°
2026-05-05 19:14 50.56167 17.91493 26913 ft 442 kts 105°
2026-05-05 19:14 50.55439 17.96184 26648 ft 440 kts 105°
2026-05-05 19:15 50.54716 18.00831 26386 ft 438 kts 105°
2026-05-05 19:15 50.54001 18.05422 25992 ft 433 kts 105°
2026-05-05 19:15 50.53278 18.10023 25266 ft 435 kts 105°
2026-05-05 19:15 50.52550 18.14643 24674 ft 434 kts 105°
2026-05-05 19:16 50.51827 18.19233 24142 ft 431 kts 105°
2026-05-05 19:16 50.51116 18.23736 23606 ft 429 kts 105°
2026-05-05 19:16 50.50405 18.28223 23012 ft 427 kts 105°
2026-05-05 19:16 50.49690 18.32725 22424 ft 424 kts 105°
2026-05-05 19:17 50.48979 18.37198 21894 ft 419 kts 105°
2026-05-05 19:17 50.48276 18.41605 21374 ft 416 kts 105°
2026-05-05 19:17 50.47576 18.45986 20860 ft 412 kts 105°
2026-05-05 19:17 50.46880 18.50323 20368 ft 409 kts 105°
2026-05-05 19:18 50.46187 18.54633 19875 ft 406 kts 105°
2026-05-05 19:18 50.45498 18.58910 19383 ft 403 kts 105°
2026-05-05 19:18 50.44808 18.63175 18897 ft 400 kts 105°
2026-05-05 19:18 50.44125 18.67391 18423 ft 398 kts 105°
2026-05-05 19:19 50.43444 18.71579 17934 ft 396 kts 105°
2026-05-05 19:19 50.42764 18.75746 17435 ft 393 kts 106°
2026-05-05 19:19 50.42096 18.79842 16970 ft 389 kts 106°
2026-05-05 19:19 50.41425 18.83937 16508 ft 385 kts 106°
2026-05-05 19:20 50.40764 18.87975 16073 ft 381 kts 106°
2026-05-05 19:20 50.40105 18.91977 15640 ft 377 kts 107°
2026-05-05 19:20 50.39461 18.95888 15214 ft 374 kts 107°
2026-05-05 19:20 50.38811 18.99821 14785 ft 370 kts 107°
2026-05-05 19:21 50.38173 19.03676 14370 ft 367 kts 107°
2026-05-05 19:21 50.37533 19.07530 13951 ft 364 kts 107°
2026-05-05 19:21 50.36898 19.11348 13518 ft 361 kts 108°
2026-05-05 19:21 50.36267 19.15131 13051 ft 358 kts 107°
2026-05-05 19:22 50.35646 19.18851 12636 ft 354 kts 107°
2026-05-05 19:22 50.35026 19.22559 12226 ft 350 kts 107°
2026-05-05 19:22 50.34410 19.26232 11805 ft 347 kts 108°
2026-05-05 19:22 50.33799 19.29866 11413 ft 344 kts 108°
2026-05-05 19:23 50.33206 19.33389 11074 ft 339 kts 108°
2026-05-05 19:23 50.32629 19.36809 10842 ft 332 kts 108°
2026-05-05 19:23 50.32049 19.40244 10723 ft 321 kts 108°
2026-05-05 19:23 50.31487 19.43575 10575 ft 311 kts 108°
2026-05-05 19:24 50.30946 19.46764 10424 ft 303 kts 108°
2026-05-05 19:24 50.30412 19.49906 10276 ft 294 kts 108°
2026-05-05 19:24 50.29894 19.52951 10136 ft 285 kts 108°
2026-05-05 19:24 50.29389 19.55910 10001 ft 277 kts 108°
2026-05-05 19:25 50.28899 19.58779 9842 ft 270 kts 108°
2026-05-05 19:25 50.28411 19.61618 9554 ft 272 kts 108°
2026-05-05 19:25 50.27912 19.64516 9225 ft 278 kts 109°
2026-05-05 19:25 50.27407 19.67442 8913 ft 280 kts 109°
2026-05-05 19:26 50.26899 19.70386 8581 ft 282 kts 109°
2026-05-05 19:26 50.26387 19.73350 8287 ft 283 kts 109°
2026-05-05 19:26 50.25873 19.76315 7997 ft 283 kts 109°
2026-05-05 19:26 50.25369 19.79222 7686 ft 283 kts 109°
2026-05-05 19:27 50.24856 19.82180 7375 ft 281 kts 109°
2026-05-05 19:27 50.24336 19.85163 7065 ft 280 kts 110°
2026-05-05 19:27 50.23835 19.88047 6860 ft 276 kts 110°
2026-05-05 19:27 50.23323 19.90977 6861 ft 278 kts 110°
2026-05-05 19:28 50.22819 19.93859 6547 ft 281 kts 110°
2026-05-05 19:28 50.22296 19.96841 6048 ft 287 kts 110°
2026-05-05 19:28 50.21770 19.99840 5754 ft 284 kts 110°
2026-05-05 19:28 50.21254 20.02763 5556 ft 276 kts 112°
2026-05-05 19:29 50.20366 20.05282 5249 ft 259 kts 142°
2026-05-05 19:29 50.18884 20.06599 5037 ft 238 kts 170°
2026-05-05 19:29 50.17318 20.07201 4930 ft 226 kts 172°
2026-05-05 19:29 50.15820 20.07759 4810 ft 217 kts 172°
2026-05-05 19:30 50.14378 20.08269 4657 ft 208 kts 175°
2026-05-05 19:30 50.13014 20.08125 4396 ft 196 kts 206°
2026-05-05 19:30 50.11989 20.06821 4127 ft 193 kts 236°
2026-05-05 19:30 50.11488 20.04876 3966 ft 194 kts 251°
2026-05-05 19:31 50.11167 20.02824 3700 ft 195 kts 252°
2026-05-05 19:31 50.10871 20.00756 3434 ft 195 kts 253°
2026-05-05 19:31 50.10581 19.98685 3167 ft 195 kts 252°
2026-05-05 19:31 50.10294 19.96619 2908 ft 195 kts 252°
2026-05-05 19:32 50.10012 19.94591 2688 ft 192 kts 252°
2026-05-05 19:32 50.09744 19.92648 2426 ft 168 kts 252°
2026-05-05 19:32 50.09516 19.91001 2217 ft 148 kts 252°
2026-05-05 19:32 50.09305 19.89497 2056 ft 139 kts 253°
2026-05-05 19:33 50.09098 19.88022 1856 ft 140 kts 255°
2026-05-05 19:33 50.08874 19.86497 1655 ft 151 kts 253°
2026-05-05 19:33 50.08657 19.84916 1467 ft 146 kts 257°
2026-05-05 19:33 50.08453 19.83402 1267 ft 142 kts 256°
2026-05-05 19:34 50.08242 19.81914 1099 ft 139 kts 259°
2026-05-05 19:34 50.08045 19.80456 896 ft 136 kts 258°
2026-05-05 19:34 50.07856 19.79082 803 ft 111 kts 258°
2026-05-05 19:35 50.07662 19.78095 802 ft 12 kts 183°
2026-05-05 19:35 50.07585 19.78089 802 ft 12 kts 182°
2026-05-05 19:35 50.07516 19.78083 802 ft 9 kts 183°
2026-05-05 19:35 50.07473 19.78143 802 ft 10 kts 86°
2026-05-05 19:36 50.07489 19.78261 802 ft 12 kts 77°
2026-05-05 19:36 50.07509 19.78406 802 ft 15 kts 77°
2026-05-05 19:36 50.07532 19.78571 802 ft 16 kts 78°
2026-05-05 19:36 50.07557 19.78749 802 ft 18 kts 77°
2026-05-05 19:37 50.07582 19.78933 802 ft 17 kts 78°
2026-05-05 19:37 50.07609 19.79125 802 ft 19 kts 77°
2026-05-05 19:37 50.07639 19.79336 802 ft 17 kts 79°
2026-05-05 19:37 50.07665 19.79529 802 ft 19 kts 77°
2026-05-05 19:38 50.07693 19.79727 802 ft 16 kts 77°
2026-05-05 19:38 50.07698 19.79861 802 ft 10 kts 131°
2026-05-05 19:38 50.07626 19.79894 802 ft 12 kts 168°
2026-05-05 19:38 50.07544 19.79921 802 ft 10 kts 168°
2026-05-05 19:39 50.07513 19.80005 802 ft 10 kts 78°
2026-05-05 19:39 50.07527 19.80101 802 ft 10 kts 78°
2026-05-05 19:39 50.07542 19.80209 802 ft 8 kts 77°
2026-05-05 19:39 50.07537 19.80257 802 ft 4 kts 142°
2026-05-05 19:40 50.07512 19.80268 802 ft 4 kts 167°
2026-05-05 19:40 50.07502 19.80272 802 ft 0 kts 167°